Regional Weather Roundup
Issued by NWS Little Rock, AR

Home | Current Version | Previous Version | Graphics & Text | Print | Product List | Glossary On
Versions: 1 2 3 4 5 6 7 8 9 10 11 12 13 14 15 16 17 18 19 20 21 22 23 24 25 26 27 28 29 30 31 32 33 34 35 36 37 38 39 40 41 42 43 44 45 46 47 48 49 50
000
ASUS44 KLZK 301705
RWRLZK

WEATHER ROUNDUP FOR ARKANSAS
NATIONAL WEATHER SERVICE LITTLE ROCK AR
1200 PM CDT WED JUL 30 2014

NOTE: "FAIR" INDICATES FEW OR NO CLOUDS BELOW 12,000 FEET WITH NO
SIGNIFICANT WEATHER AND/OR OBSTRUCTIONS TO VISIBILITY.

ARZ001-003-010-029-301800-
NORTHWEST ARKANSAS

CITY           SKY/WX    TMP DP  RH WIND       PRES   REMARKS
FAYETTEVILLE   LGT RAIN  70  69  97 SW8       30.13S
FORT SMITH     LGT RAIN  72  69  90 SE3       30.12S
HARRISON       LGT RAIN  68  66  93 S7        30.12F
BENTONVILLE    CLOUDY    70  66  88 SW5       30.13S
ROGERS         LGT RAIN  70  67  90 SW9       30.13S
SILOAM SPGS    CLOUDY    72  63  73 SW12      30.14S
HIGHFILL       CLOUDY    71  69  93 SW9       30.12F
SPRINGDALE     CLOUDY    72  68  88 SW8       30.14S
$$

ARZ004-005-016-301800-
NORTH CENTRAL ARKANSAS

CITY           SKY/WX    TMP DP  RH WIND       PRES   REMARKS
BATESVILLE     PTSUNNY   77  59  53 S8        30.12S
FLIPPIN        CLOUDY    70  64  83 CALM      30.12S
MTN HOME       LGT RAIN  68  66  93 CALM      30.11S
$$

ARZ040-041-301800-
WEST CENTRAL ARKANSAS

CITY           SKY/WX    TMP DP  RH WIND       PRES   REMARKS
MENA           CLOUDY    72  66  83 CALM      30.15F
MOUNT IDA      CLOUDY    72  63  73 CALM      30.12S
$$

ARZ009-017-025-026-028-301800-
NORTHEAST ARKANSAS

CITY           SKY/WX    TMP DP  RH WIND       PRES   REMARKS
CORNING          N/A     77  61  57 SW8       30.11F
JONESBORO      MOSUNNY   79  60  52 S9G16     30.11F
NEWPORT        CLOUDY    81  60  48 S9G16     30.12F
WALNUT RIDGE   MOSUNNY   81  57  44 S13       30.11S
BLYTHEVILLE    SUNNY     80  58  46 S7        30.12F
NW BLYTHEVILLE MOSUNNY   82  61  47 SW10      30.12S
$$

ARZ022-023-033-042-044-301800-
CENTRAL ARKANSAS

CITY           SKY/WX    TMP DP  RH WIND       PRES   REMARKS
LITTLE ROCK    PTSUNNY   80  59  48 SW7       30.12S
N LITTLE ROCK  PTSUNNY   79  62  55 S7        30.12S
JACKSONVILLE   FAIR      80  60  50 VRB7      30.11F
SEARCY         FAIR      79  62  55 SW6       30.12S
HOT SPRINGS    LGT RAIN  71  62  73 CALM      30.13F
RUSSELLVILLE   CLOUDY    74  62  66 SW5       30.13R
CLINTON        PTSUNNY   75  64  69 S3        30.13S
$$

ARZ036-301800-
EAST ARKANSAS

CITY           SKY/WX    TMP DP  RH WIND       PRES   REMARKS
WEST MEMPHIS   FAIR      79  58  48 VRB6      30.11F
$$

ARZ050-053-066-070-073-301800-
SOUTHWEST ARKANSAS

CITY           SKY/WX    TMP DP  RH WIND       PRES   REMARKS
ARKADELPHIA    FAIR      78  65  64 S3        30.12F
CAMDEN         FAIR      82  59  44 SW5       30.12S
TEXARKANA      PTSUNNY   77  63  61 S9        30.12S
EL DORADO      FAIR      78  63  59 SE7       30.12F
DE QUEEN       CLOUDY    74  66  76 CALM      30.11S
$$

ARZ056-057-069-301800-
SOUTHEAST ARKANSAS

CITY           SKY/WX    TMP DP  RH WIND       PRES   REMARKS
PINE BLUFF     FAIR      78  62  57 S7        30.12F
STUTTGART      FAIR      81  61  50 S6        30.12F
MONTICELLO     FAIR      79  59  50 S8        30.12F

$$





USA.gov is the U.S. government's official web portal to all federal, state and local government web resources and services.